Doha, Qatar

2:35 PM AST on August 26, 2016 (GMT +0300)
Doha

Weather History for 41170 - April, 2013

Change the Weather History Date:

Wednesday, April 17, 2013

  Actual Average Record
Temperature  
Mean Temperature 91 °F -  
Max Temperature 100 °F 96 °F - ()
Min Temperature 82 °F 74 °F - ()
Cooling Degree Days 26    
Growing Degree Days 41 (Base 50)    
Moisture  
Dew Point 57 °F    
Average Humidity 34    
Maximum Humidity 66    
Minimum Humidity 20    
Precipitation  
Precipitation 0.47 in 0.01 in - ()
Sea Level Pressure  
Sea Level Pressure 29.74 in    
Wind  
Wind Speed 11 mph ()    
Max Wind Speed 69 mph    
Max Gust Speed 34 mph    
Visibility 5.9 miles    
Events Rain , Thunderstorm    
T = Trace of Precipitation, MM = Missing Value Source: Averaged Metar Reports

Daily Weather History Graph

Daily Weather History Graph

Search for Another Location

Airport or City:

Trip Planner

Search our weather history database for the weather conditions in past years. The results will help you decide how hot, cold, wet, or windy it might be!

Date:

Astronomy

Apr. 17, 2013 Rise Set
Actual Time 5:09 AM AST 5:57 PM AST
Civil Twilight 4:46 AM AST 6:20 PM AST
Nautical Twilight 4:18 AM AST 6:48 PM AST
Astronomical Twilight 3:50 AM AST 7:16 PM AST
Moon 10:14 AM AST (4/17) 11:48 PM AST (4/17)
Length of Visible Light 13h 34m
Length of Day
12h 47m
Waxing Crescent, 39% of the Moon is Illuminated
Apr 17
Waxing Crescent
Apr 18
First Quarter
Apr 25
Full
May 2
Last Quarter
May 10
New

Hourly Weather History & Observations

Time (AST) Temp. Heat Index Dew Point Humidity Pressure Visibility Wind Dir Wind Speed Gust Speed Precip Events Conditions
12:00 AM 84.2 °F 84.4 °F 60.8 °F 45% 29.74 in 6.2 mi ENE 3.5 mph - N/A Thunderstorm Thunderstorm
1:00 AM 84.2 °F - 50.0 °F 30% 29.83 in 3.7 mi NW 15.0 mph - N/A Rain Light Rain
1:30 AM 84.2 °F - 51.8 °F 33% 29.83 in 3.7 mi NNW 25.3 mph - N/A Rain Light Rain
2:00 AM 84.2 °F 83.0 °F 55.4 °F 37% 29.83 in 6.2 mi NNW 20.7 mph 32.2 mph N/A Rain Light Rain
2:30 AM 86.0 °F 84.5 °F 55.4 °F 35% 29.83 in 6.2 mi NNW 18.4 mph - N/A   Scattered Clouds
3:00 AM 84 °F - 58 °F 31% 29.82 in 6 mi NNW 20.7 mph - - Rain Light Rain
3:00 AM 84.2 °F 83.5 °F 57.2 °F 40% 29.80 in 6.2 mi NNW 20.7 mph - N/A Rain Light Rain
3:30 AM 84.2 °F 83.0 °F 55.4 °F 37% 29.83 in 6.2 mi NW 18.4 mph - N/A Rain Light Rain
4:00 AM 84.2 °F 83.5 °F 57.2 °F 40% 29.83 in 6.2 mi NW 19.6 mph 34.5 mph N/A Rain Light Rain
4:30 AM 82.4 °F 83.4 °F 62.6 °F 51% 29.77 in 6.2 mi North 8.1 mph 21.9 mph N/A   Mostly Cloudy
5:00 AM 82.4 °F 82.9 °F 60.8 °F 48% 29.71 in 6.2 mi NNE 11.5 mph - N/A   Scattered Clouds
6:00 AM 82.4 °F 83.9 °F 64.4 °F 54% 29.77 in 6.2 mi NNE 5.8 mph - N/A   Scattered Clouds
6:30 AM 84.2 °F 85.6 °F 64.4 °F 51% 29.77 in 6.2 mi SE 4.6 mph - N/A   Mostly Cloudy
7:00 AM 84.2 °F 83.5 °F 57.2 °F 40% 29.80 in 6.2 mi SSW 6.9 mph - N/A   Mostly Cloudy
7:30 AM 84.2 °F 85.0 °F 62.6 °F 48% 29.80 in 6.2 mi South 5.8 mph - N/A   Mostly Cloudy
8:00 AM 87.8 °F 87.1 °F 59.0 °F 38% 29.77 in 6.2 mi SSW 5.8 mph - N/A   Scattered Clouds
8:30 AM 89.6 °F 89.5 °F 60.8 °F 38% 29.80 in 5.6 mi Variable 2.3 mph - N/A   Scattered Clouds
9:00 AM 93.2 °F 92.6 °F 59.0 °F 32% 29.77 in 5.6 mi Variable 1.2 mph - N/A   Scattered Clouds
9:30 AM 96.8 °F 94.4 °F 53.6 °F 23% 29.77 in 6.2 mi SSW 4.6 mph - N/A   Scattered Clouds
10:00 AM 98.6 °F - 51.8 °F 21% 29.74 in - SE 9.2 mph - N/A   Clear
10:30 AM 100.4 °F - 51.8 °F 20% 29.74 in 6.2 mi SSE 11.5 mph - N/A   Scattered Clouds
11:00 AM 98.6 °F 96.4 °F 53.6 °F 22% 29.71 in 6.2 mi SE 16.1 mph - N/A   Scattered Clouds
11:30 AM 96.8 °F 95.1 °F 55.4 °F 25% 29.71 in 6.2 mi SE 15.0 mph - N/A   Mostly Cloudy
12:00 PM 91.4 °F 90.7 °F 59.0 °F 34% 29.77 in 6.2 mi West 10.4 mph 23.0 mph N/A Rain , Thunderstorm Light Thunderstorms and Rain
12:30 PM 98.6 °F 97.2 °F 55.4 °F 24% 29.74 in 6.2 mi South 16.1 mph - N/A   Scattered Clouds
1:00 PM 98.6 °F 96.4 °F 53.6 °F 22% 29.71 in 6.2 mi SSE 12.7 mph - N/A   Scattered Clouds
1:30 PM 100.4 °F 98.4 °F 53.6 °F 21% 29.68 in 6.2 mi SE 18.4 mph - N/A   Scattered Clouds
2:00 PM 98.6 °F - 51.8 °F 21% 29.71 in 6.2 mi SSE 12.7 mph - N/A   Scattered Clouds
2:30 PM 96.8 °F 95.8 °F 57.2 °F 27% 29.74 in 6.2 mi SSW 5.8 mph - N/A   Scattered Clouds
3:00 PM - - 52 °F % 29.68 in 7 mi NNE 69.0 mph - - Rain Light Rain
3:00 PM 96.8 °F - 51.8 °F 22% 29.68 in 6.2 mi SSW 15.0 mph - N/A Rain Light Rain
3:30 PM 98.6 °F 96.4 °F 53.6 °F 22% 29.68 in 6.2 mi SW 17.3 mph - N/A   Scattered Clouds
4:00 PM 98.6 °F - 51.8 °F 21% 29.68 in 6.2 mi SW 15.0 mph - N/A   Scattered Clouds
4:30 PM 98.6 °F - 51.8 °F 21% 29.65 in 6.2 mi SW 10.4 mph - N/A Rain Light Rain
5:00 PM 98.6 °F - 51.8 °F 21% 29.68 in 6.2 mi West 6.9 mph - N/A Rain , Thunderstorm Light Thunderstorms and Rain
5:31 PM 93.2 °F 90.8 °F 53.6 °F 26% 29.71 in 5.0 mi NNW 23.0 mph - N/A Rain , Thunderstorm Light Thunderstorms and Rain
6:00 PM 95.0 °F - 50.0 °F 22% 29.68 in 4.3 mi NW 8.1 mph 27.6 mph N/A Rain Light Rain
6:30 PM 93.2 °F 91.3 °F 55.4 °F 28% 29.68 in 4.3 mi SSW 11.5 mph - N/A   Scattered Clouds
7:00 PM 91.4 °F 89.9 °F 57.2 °F 31% 29.68 in 5.0 mi WSW 3.5 mph - N/A   Unknown
7:30 PM 89.6 °F 89.5 °F 60.8 °F 38% 29.68 in - Variable 2.3 mph - N/A   Clear
8:00 PM 91.4 °F 89.9 °F 57.2 °F 31% 29.68 in - Variable 2.3 mph - N/A   Clear
8:30 PM 89.6 °F 88.1 °F 57.2 °F 33% 29.68 in - WNW 4.6 mph - N/A   Clear
9:00 PM 91 °F - 58 °F 23% 29.71 in 6 mi NW 3.5 mph - -   Partly Cloudy
9:00 PM 91.4 °F 90.7 °F 59.0 °F 34% 29.71 in - NW 3.5 mph - N/A   Clear
10:00 PM 87.8 °F 87.6 °F 60.8 °F 40% 29.71 in - NNE 6.9 mph - N/A   Clear
10:30 PM 84.2 °F 88.4 °F 69.8 °F 62% 29.71 in - North 5.8 mph - N/A   Clear
11:00 PM 82.4 °F 86.3 °F 69.8 °F 66% 29.71 in - NE 3.5 mph - N/A   Clear
11:30 PM 82.4 °F 86.3 °F 69.8 °F 66% 29.71 in - Calm Calm - N/A   Clear